Location: El Carrer d�Abaix
(41.5797°N, 2.1791°E)
Time: 15:54:23
(UTC+00:00)

Cosmos 2266 Rocket - Pass Details

Date: 06 June 2020
Orbit: 935 x 1007 km, 82.9° (Epoch: 10 July)

Event Time Altitude Azimuth Distance (km) Brightness Sun altitude
Exits shadow 22:47:47 41° 212° (SSW) 1,329 4.4 -24.0°
Maximum altitude 22:49:53 67° 279° (W) 1,014 4.1 -24.1°
Drops below altitude 10° 22:55:54 10° 2° (N) 2,654 7.3 -24.4°
Sets 22:58:25 0° 5° (N) 3,602 8.2 -24.5°
